| time (UTC) | temp C | wind direction | speed KPH | gust KPH | rain 1hr cm | rain 24hr cm | rain mn cm | humidity % | barometer mb |
| 20260901052205 | 19 | 298 | 3.2 | 6.4 | 0.00 | 0.00 | 0.00 | 34 | 1007.8 |
| 20260901052140 | 19 | 295 | 3.2 | 6.4 | 0.00 | 0.00 | 0.00 | 34 | 1007.8 |
| 20260901050700 | 20 | 319 | 1.6 | 9.7 | 0.00 | 0.00 | 0.00 | 34 | 1007.7 |
| 20260901050201 | 20 | 329 | 3.2 | 9.7 | 0.00 | 0.00 | 0.00 | 34 | 1007.8 |
| 20260901045701 | 20 | 355 | 3.2 | 9.7 | 0.00 | 0.00 | 0.00 | 33 | 1007.8 |
| 20260901045200 | 21 | 327 | 4.8 | 14.5 | 0.00 | 0.00 | 0.00 | 33 | 1007.7 |
| 20260901044909 | 21 | 355 | 4.8 | 14.5 | 0.00 | 0.00 | 0.00 | 33 | 1007.7 |
| 20260901043701 | 21 | 313 | 4.8 | 12.9 | 0.00 | 0.00 | 0.00 | 32 | 1007.7 |
| 20260901043423 | 21 | 350 | 3.2 | 9.7 | 0.00 | 0.00 | 0.00 | 32 | 1007.7 |
| 20260901042659 | 21 | 343 | 3.2 | 9.7 | 0.00 | 0.00 | 0.00 | 32 | 1007.7 |
| 20260901042203 | 21 | 345 | 3.2 | 9.7 | 0.00 | 0.00 | 0.00 | 32 | 1007.5 |
| 20260901041659 | 22 | 0 | 4.8 | 17.7 | 0.00 | 0.00 | 0.00 | 31 | 1007.5 |
| 20260901041159 | 22 | 355 | 6.4 | 17.7 | 0.00 | 0.00 | 0.00 | 31 | 1007.4 |
| 20260901040700 | 22 | 346 | 6.4 | 17.7 | 0.00 | 0.00 | 0.00 | 31 | 1007.2 |
| 20260901040159 | 22 | 317 | 6.4 | 16.1 | 0.00 | 0.00 | 0.00 | 31 | 1007.2 |
| 20260901040150 | 22 | 355 | 6.4 | 16.1 | 0.00 | 0.00 | 0.00 | 31 | 1007.1 |
| 20260901035158 | 22 | 343 | 8.0 | 19.3 | 0.00 | 0.00 | 0.00 | 30 | 1007.0 |
| 20260901034656 | 22 | 347 | 8.0 | 19.3 | 0.00 | 0.00 | 0.00 | 31 | 1007.0 |
| 20260901034427 | 22 | 338 | 6.4 | 17.7 | 0.00 | 0.00 | 0.00 | 30 | 1007.0 |
| 20260901033655 | 22 | 344 | 6.4 | 16.1 | 0.00 | 0.00 | 0.00 | 30 | 1006.9 |
| 20260901033153 | 22 | 355 | 6.4 | 16.1 | 0.00 | 0.00 | 0.00 | 30 | 1006.9 |
| 20260901032654 | 23 | 53 | 4.8 | 16.1 | 0.00 | 0.00 | 0.00 | 30 | 1006.8 |
| 20260901032154 | 23 | 341 | 6.4 | 17.7 | 0.00 | 0.00 | 0.00 | 29 | 1006.7 |
| 20260901031656 | 23 | 0 | 6.4 | 17.7 | 0.00 | 0.00 | 0.00 | 29 | 1006.7 |
| 20260901031151 | 23 | 355 | 6.4 | 17.7 | 0.00 | 0.00 | 0.00 | 29 | 1006.6 |
| 20260901030651 | 23 | 351 | 6.4 | 17.7 | 0.00 | 0.00 | 0.00 | 29 | 1006.6 |
| 20260901030151 | 23 | 336 | 8.0 | 19.3 | 0.00 | 0.00 | 0.00 | 29 | 1006.6 |
| 20260901025652 | 23 | 328 | 6.4 | 19.3 | 0.00 | 0.00 | 0.00 | 29 | 1006.5 |
| 20260901025152 | 24 | 331 | 6.4 | 19.3 | 0.00 | 0.00 | 0.00 | 28 | 1006.6 |
| 20260901025142 | 24 | 355 | 6.4 | 19.3 | 0.00 | 0.00 | 0.00 | 28 | 1006.4 |
| 20260901024145 | 24 | 23 | 6.4 | 17.7 | 0.00 | 0.00 | 0.00 | 27 | 1006.2 |
| 20260901023638 | 25 | 337 | 6.4 | 22.5 | 0.00 | 0.00 | 0.00 | 27 | 1006.2 |
| 20260901023133 | 25 | 355 | 6.4 | 22.5 | 0.00 | 0.00 | 0.00 | 26 | 1006.1 |
| 20260901022855 | 25 | 350 | 6.4 | 22.5 | 0.00 | 0.00 | 0.00 | 26 | 1006.0 |
| 20260901022124 | 26 | 331 | 8.0 | 22.5 | 0.00 | 0.00 | 0.00 | 26 | 1005.9 |
| 20260901021615 | 26 | 342 | 8.0 | 22.5 | 0.00 | 0.00 | 0.00 | 25 | 1006.0 |
| 20260901021109 | 26 | 0 | 9.7 | 22.5 | 0.00 | 0.00 | 0.00 | 25 | 1005.9 |
| 20260901021058 | 26 | 12 | 9.7 | 22.5 | 0.00 | 0.00 | 0.00 | 24 | 1005.8 |
| 20260901020330 | 26 | 19 | 11.3 | 24.1 | 0.00 | 0.00 | 0.00 | 24 | 1005.8 |
| 20260901015815 | 27 | 0 | 11.3 | 24.1 | 0.00 | 0.00 | 0.00 | 23 | 1005.8 |
| 20260901015045 | 27 | 337 | 9.7 | 19.3 | 0.00 | 0.00 | 0.00 | 23 | 1005.8 |
| 20260901014812 | 27 | 0 | 9.7 | 22.5 | 0.00 | 0.00 | 0.00 | 23 | 1005.8 |
| 20260901014033 | 27 | 30 | 9.7 | 20.9 | 0.00 | 0.00 | 0.00 | 22 | 1005.7 |
| 20260901013532 | 28 | 5 | 8.0 | 22.5 | 0.00 | 0.00 | 0.00 | 22 | 1005.6 |
| 20260901013022 | 28 | 46 | 6.4 | 24.1 | 0.00 | 0.00 | 0.00 | 21 | 1005.6 |
| 20260901012514 | 28 | 40 | 8.0 | 24.1 | 0.00 | 0.00 | 0.00 | 21 | 1005.7 |
| 20260901012009 | 28 | 335 | 8.0 | 20.9 | 0.00 | 0.00 | 0.00 | 20 | 1005.7 |
| 20260901011503 | 29 | 50 | 6.4 | 16.1 | 0.00 | 0.00 | 0.00 | 20 | 1005.8 |
| 20260901010957 | 29 | 338 | 6.4 | 20.9 | 0.00 | 0.00 | 0.00 | 20 | 1005.6 |
| 20260901010451 | 29 | 34 | 6.4 | 20.9 | 0.00 | 0.00 | 0.00 | 20 | 1005.6 |
| 20260901005945 | 29 | 310 | 9.7 | 22.5 | 0.00 | 0.00 | 0.00 | 20 | 1005.7 |
| 20260901005439 | 28 | 355 | 11.3 | 22.5 | 0.00 | 0.00 | 0.00 | 19 | 1005.7 |
| 20260901004933 | 29 | 0 | 11.3 | 22.5 | 0.00 | 0.00 | 0.00 | 19 | 1005.8 |
| 20260901004427 | 29 | 5 | 9.7 | 22.5 | 0.00 | 0.00 | 0.00 | 19 | 1005.8 |
| 20260901003923 | 29 | 5 | 9.7 | 29.0 | 0.00 | 0.00 | 0.00 | 20 | 1006.0 |
| 20260901003415 | 29 | 345 | 9.7 | 29.0 | 0.00 | 0.00 | 0.00 | 19 | 1006.0 |
| 20260901003135 | 29 | 319 | 11.3 | 24.1 | 0.00 | 0.00 | 0.00 | 19 | 1005.9 |
| 20260901002404 | 29 | 355 | 11.3 | 22.5 | 0.00 | 0.00 | 0.00 | 20 | 1005.9 |
| 20260901001904 | 29 | 17 | 9.7 | 20.9 | 0.00 | 0.00 | 0.00 | 19 | 1005.8 |
| 20260901001401 | 29 | 347 | 11.3 | 24.1 | 0.00 | 0.00 | 0.00 | 20 | 1005.9 |
| 20260901000859 | 29 | 346 | 11.3 | 24.1 | 0.00 | 0.00 | 0.00 | 20 | 1005.9 |
| 20260901000624 | 28 | 305 | 9.7 | 22.5 | 0.00 | 0.00 | 0.00 | 20 | 1006.0 |
| 20260831235857 | 28 | 324 | 11.3 | 22.5 | 0.00 | 0.00 | 0.00 | 20 | 1005.9 |
| 20260831235357 | 28 | 336 | 11.3 | 22.5 | 0.00 | 0.00 | 0.00 | 20 | 1006.0 |
| 20260831234858 | 28 | 346 | 11.3 | 22.5 | 0.00 | 0.00 | 0.00 | 20 | 1006.0 |
| 20260831234357 | 28 | 5 | 9.7 | 20.9 | 0.00 | 0.00 | 0.00 | 20 | 1006.0 |
| 20260831233857 | 29 | 350 | 8.0 | 22.5 | 0.00 | 0.00 | 0.00 | 19 | 1006.1 |
| 20260831233617 | 29 | 346 | 9.7 | 22.5 | 0.00 | 0.00 | 0.00 | 19 | 1006.2 |
| 20260831232857 | 29 | 333 | 9.7 | 20.9 | 0.00 | 0.00 | 0.00 | 20 | 1006.1 |
| 20260831232357 | 30 | 313 | 8.0 | 20.9 | 0.00 | 0.00 | 0.00 | 19 | 1006.1 |
| 20260831232123 | 29 | 20 | 9.7 | 19.3 | 0.00 | 0.00 | 0.00 | 19 | 1006.2 |
| 20260831231357 | 30 | 330 | 9.7 | 20.9 | 0.00 | 0.00 | 0.00 | 19 | 1006.2 |
| 20260831230856 | 30 | 55 | 8.0 | 20.9 | 0.00 | 0.00 | 0.00 | 20 | 1006.4 |
| 20260831230357 | 30 | 336 | 6.4 | 16.1 | 0.00 | 0.00 | 0.00 | 19 | 1006.4 |
| 20260831225857 | 30 | 28 | 4.8 | 16.1 | 0.00 | 0.00 | 0.00 | 20 | 1006.5 |
| 20260831225624 | 30 | 39 | 6.4 | 19.3 | 0.00 | 0.00 | 0.00 | 19 | 1006.5 |
| 20260831224857 | 29 | 50 | 6.4 | 19.3 | 0.00 | 0.00 | 0.00 | 20 | 1006.6 |
| 20260831224357 | 29 | 21 | 6.4 | 16.1 | 0.00 | 0.00 | 0.00 | 20 | 1006.6 |
| 20260831223856 | 29 | 324 | 6.4 | 17.7 | 0.00 | 0.00 | 0.00 | 21 | 1006.6 |
| 20260831223356 | 29 | 40 | 6.4 | 19.3 | 0.00 | 0.00 | 0.00 | 20 | 1006.8 |
| 20260831222856 | 29 | 341 | 6.4 | 19.3 | 0.00 | 0.00 | 0.00 | 20 | 1006.9 |
| 20260831222357 | 29 | 9 | 4.8 | 14.5 | 0.00 | 0.00 | 0.00 | 20 | 1007.0 |
| 20260831221857 | 28 | 35 | 6.4 | 16.1 | 0.00 | 0.00 | 0.00 | 21 | 1007.0 |
| 20260831221356 | 28 | 350 | 6.4 | 17.7 | 0.00 | 0.00 | 0.00 | 21 | 1007.0 |
| 20260831220857 | 28 | 0 | 8.0 | 17.7 | 0.00 | 0.00 | 0.00 | 21 | 1007.2 |
| 20260831220357 | 28 | 23 | 8.0 | 19.3 | 0.00 | 0.00 | 0.00 | 22 | 1007.2 |
| 20260831220124 | 28 | 355 | 6.4 | 19.3 | 0.00 | 0.00 | 0.00 | 21 | 1007.4 |
| 20260831215356 | 28 | 5 | 4.8 | 14.5 | 0.00 | 0.00 | 0.00 | 22 | 1007.4 |
| 20260831214859 | 28 | 22 | 6.4 | 19.3 | 0.00 | 0.00 | 0.00 | 23 | 1007.7 |
| 20260831214357 | 28 | 355 | 6.4 | 19.3 | 0.00 | 0.00 | 0.00 | 22 | 1007.7 |
| 20260831213856 | 27 | 5 | 6.4 | 16.1 | 0.00 | 0.00 | 0.00 | 23 | 1007.8 |
| 20260831213356 | 27 | 324 | 8.0 | 16.1 | 0.00 | 0.00 | 0.00 | 22 | 1007.7 |
| 20260831212857 | 27 | 54 | 8.0 | 17.7 | 0.00 | 0.00 | 0.00 | 22 | 1007.9 |
| 20260831212356 | 27 | 0 | 6.4 | 17.7 | 0.00 | 0.00 | 0.00 | 22 | 1008.0 |
| 20260831211849 | 27 | 59 | 4.8 | 14.5 | 0.00 | 0.00 | 0.00 | 22 | 1008.0 |
| 20260831211341 | 27 | 44 | 4.8 | 14.5 | 0.00 | 0.00 | 0.00 | 23 | 1008.1 |
| 20260831210836 | 27 | 355 | 6.4 | 22.5 | 0.00 | 0.00 | 0.00 | 23 | 1008.1 |
| 20260831210551 | 26 | 31 | 8.0 | 22.5 | 0.00 | 0.00 | 0.00 | 24 | 1008.1 |
| 20260831210048 | 26 | 330 | 8.0 | 19.3 | 0.00 | 0.00 | 0.00 | 23 | 1008.2 |
| 20260831205318 | 26 | 13 | 8.0 | 19.3 | 0.00 | 0.00 | 0.00 | 24 | 1008.3 |
| 20260831204812 | 26 | 34 | 6.4 | 16.1 | 0.00 | 0.00 | 0.00 | 25 | 1008.4 |
| 20260831204531 | 26 | 350 | 6.4 | 16.1 | 0.00 | 0.00 | 0.00 | 25 | 1008.5 |
| 20260831203801 | 26 | 28 | 8.0 | 17.7 | 0.00 | 0.00 | 0.00 | 25 | 1008.5 |
| 20260831203255 | 26 | 15 | 6.4 | 17.7 | 0.00 | 0.00 | 0.00 | 25 | 1008.5 |
| 20260831202748 | 26 | 19 | 6.4 | 17.7 | 0.00 | 0.00 | 0.00 | 26 | 1008.5 |
| 20260831202242 | 26 | 340 | 4.8 | 14.5 | 0.00 | 0.00 | 0.00 | 26 | 1008.7 |
| 20260831202008 | 25 | 5 | 3.2 | 12.9 | 0.00 | 0.00 | 0.00 | 26 | 1008.7 |
| 20260831201230 | 25 | 42 | 4.8 | 12.9 | 0.00 | 0.00 | 0.00 | 27 | 1009.0 |
| 20260831200729 | 25 | 45 | 4.8 | 12.9 | 0.00 | 0.00 | 0.00 | 27 | 1009.2 |
| 20260831200218 | 25 | 348 | 4.8 | 12.9 | 0.00 | 0.00 | 0.00 | 27 | 1009.3 |
| 20260831195712 | 25 | 311 | 4.8 | 11.3 | 0.00 | 0.00 | 0.00 | 28 | 1009.4 |
| 20260831195206 | 24 | 29 | 4.8 | 12.9 | 0.00 | 0.00 | 0.00 | 29 | 1009.5 |
| 20260831194924 | 24 | 349 | 4.8 | 12.9 | 0.00 | 0.00 | 0.00 | 28 | 1009.6 |
| 20260831194154 | 24 | 13 | 3.2 | 12.9 | 0.00 | 0.00 | 0.00 | 29 | 1009.7 |
| 20260831193911 | 24 | 25 | 3.2 | 11.3 | 0.00 | 0.00 | 0.00 | 29 | 1009.7 |
| 20260831193141 | 23 | 11 | 4.8 | 12.9 | 0.00 | 0.00 | 0.00 | 28 | 1009.8 |
| 20260831192636 | 23 | 36 | 4.8 | 12.9 | 0.00 | 0.00 | 0.00 | 29 | 1009.8 |
| 20260831192130 | 23 | 51 | 3.2 | 12.9 | 0.00 | 0.00 | 0.00 | 30 | 1009.9 |
| 20260831192119 | 23 | 15 | 3.2 | 12.9 | 0.00 | 0.00 | 0.00 | 29 | 1009.9 |
| 20260831191118 | 23 | 17 | 3.2 | 12.9 | 0.00 | 0.00 | 0.00 | 30 | 1010.1 |
| 20260831190612 | 23 | 34 | 3.2 | 8.0 | 0.00 | 0.00 | 0.00 | 28 | 1010.1 |
| 20260831190106 | 23 | 0 | 4.8 | 12.9 | 0.00 | 0.00 | 0.00 | 30 | 1010.3 |
| 20260831185600 | 22 | 311 | 4.8 | 12.9 | 0.00 | 0.00 | 0.00 | 30 | 1010.4 |
| 20260831185054 | 22 | 349 | 4.8 | 11.3 | 0.00 | 0.00 | 0.00 | 30 | 1010.5 |
| 20260831184548 | 22 | 257 | 4.8 | 11.3 | 0.00 | 0.00 | 0.00 | 30 | 1010.6 |
| 20260831184042 | 22 | 296 | 4.8 | 11.3 | 0.00 | 0.00 | 0.00 | 32 | 1010.6 |
| 20260831183535 | 22 | 265 | 4.8 | 9.7 | 0.00 | 0.00 | 0.00 | 30 | 1010.7 |
| 20260831183030 | 22 | 304 | 4.8 | 8.0 | 0.00 | 0.00 | 0.00 | 32 | 1010.8 |
| 20260831182524 | 21 | 342 | 3.2 | 8.0 | 0.00 | 0.00 | 0.00 | 33 | 1010.8 |
| 20260831182018 | 21 | 0 | 3.2 | 9.7 | 0.00 | 0.00 | 0.00 | 33 | 1010.9 |
| 20260831181512 | 21 | 344 | 3.2 | 9.7 | 0.00 | 0.00 | 0.00 | 34 | 1010.9 |
| 20260831181458 | 21 | 0 | 3.2 | 9.7 | 0.00 | 0.00 | 0.00 | 33 | 1011.0 |
| 20260831180500 | 20 | 55 | 1.6 | 6.4 | 0.00 | 0.00 | 0.00 | 35 | 1011.1 |
| 20260831175953 | 20 | 56 | 1.6 | 6.4 | 0.00 | 0.00 | 0.00 | 36 | 1011.3 |
| 20260831175448 | 20 | 322 | 3.2 | 8.0 | 0.00 | 0.00 | 0.00 | 36 | 1011.3 |
| 20260831174947 | 20 | 351 | 3.2 | 8.0 | 0.00 | 0.00 | 0.00 | 36 | 1011.3 |
| 20260831174716 | 19 | 346 | 3.2 | 8.0 | 0.00 | 0.00 | 0.00 | 38 | 1011.3 |
| 20260831174211 | 18 | 355 | 3.2 | 6.4 | 0.00 | 0.00 | 0.00 | 41 | 1011.4 |
| 20260831173714 | 18 | 322 | 1.6 | 6.4 | 0.00 | 0.00 | 0.00 | 41 | 1011.5 |
| 20260831172946 | 18 | 323 | 3.2 | 6.4 | 0.00 | 0.00 | 0.00 | 41 | 1011.5 |
| 20260831172755 | 18 | 288 | 1.6 | 6.4 | 0.00 | 0.00 | 0.00 | 41 | 1011.6 |
| 20260831172253 | 18 | 258 | 1.6 | 8.0 | 0.00 | 0.00 | 0.00 | 42 | 1011.7 |
| 20260831171446 | 18 | 261 | 1.6 | 8.0 | 0.00 | 0.00 | 0.00 | 42 | 1011.7 |
| 20260831171436 | 17 | 279 | 1.6 | 6.4 | 0.00 | 0.00 | 0.00 | 43 | 1011.7 |
| 20260831170446 | 17 | 157 | 1.6 | 6.4 | 0.00 | 0.00 | 0.00 | 43 | 1011.8 |
| 20260831165946 | 17 | 159 | 1.6 | 6.4 | 0.00 | 0.00 | 0.00 | 43 | 1011.8 |
| 20260831165505 | 17 | 143 | 0.0 | 3.2 | 0.00 | 0.00 | 0.00 | 43 | 1011.8 |
| 20260831165501 | 17 | 161 | 0.0 | 3.2 | 0.00 | 0.00 | 0.00 | 43 | 1011.8 |
| 20260831164446 | 16 | 139 | 0.0 | 3.2 | 0.00 | 0.00 | 0.00 | 42 | 1011.9 |
| 20260831163946 | 16 | 139 | 1.6 | 6.4 | 0.00 | 0.00 | 0.00 | 43 | 1012.0 |
| 20260831163445 | 15 | 139 | 1.6 | 6.4 | 0.00 | 0.00 | 0.00 | 44 | 1012.0 |
| 20260831162943 | 15 | 140 | 1.6 | 6.4 | 0.00 | 0.00 | 0.00 | 44 | 1012.0 |
| 20260831162445 | 15 | 149 | 1.6 | 4.8 | 0.00 | 0.00 | 0.00 | 44 | 1012.1 |
| 20260831161943 | 15 | 129 | 1.6 | 4.8 | 0.00 | 0.00 | 0.00 | 45 | 1012.1 |
| 20260831161437 | 14 | 146 | 1.6 | 4.8 | 0.00 | 0.00 | 0.00 | 46 | 1012.1 |
| 20260831160954 | 13 | 148 | 1.6 | 4.8 | 0.00 | 0.00 | 0.00 | 46 | 1012.1 |
| 20260831155938 | 13 | 146 | 1.6 | 6.4 | 0.00 | 0.00 | 0.00 | 47 | 1012.2 |
| 20260831155443 | 13 | 146 | 1.6 | 6.4 | 0.00 | 0.00 | 0.00 | 48 | 1012.3 |
| 20260831154938 | 12 | 148 | 0.0 | 8.0 | 0.00 | 0.00 | 0.00 | 50 | 1012.2 |
| 20260831154435 | 12 | 148 | 1.6 | 8.0 | 0.00 | 0.00 | 0.00 | 50 | 1012.2 |
| 20260831154206 | 11 | 147 | 1.6 | 8.0 | 0.00 | 0.00 | 0.00 | 52 | 1012.2 |
| 20260831153431 | 11 | 147 | 1.6 | 8.0 | 0.00 | 0.00 | 0.00 | 52 | 1012.2 |
| 20260831153216 | 10 | 148 | 1.6 | 4.8 | 0.00 | 0.00 | 0.00 | 54 | 1012.2 |
| 20260831153204 | 11 | 149 | 1.6 | 4.8 | 0.00 | 0.00 | 0.00 | 53 | 1012.2 |
| 20260831152213 | 10 | 148 | 1.6 | 8.0 | 0.00 | 0.00 | 0.00 | 55 | 1012.2 |
| 20260831151431 | 9 | 148 | 3.2 | 8.0 | 0.00 | 0.00 | 0.00 | 57 | 1012.1 |
| 20260831150929 | 8 | 149 | 3.2 | 8.0 | 0.00 | 0.00 | 0.00 | 58 | 1012.2 |
| 20260831150429 | 8 | 148 | 3.2 | 8.0 | 0.00 | 0.00 | 0.00 | 59 | 1012.2 |
| 20260831150216 | 8 | 146 | 4.8 | 12.9 | 0.00 | 0.00 | 0.00 | 60 | 1012.1 |
| 20260831150212 | 7 | 138 | 4.8 | 12.9 | 0.00 | 0.00 | 0.00 | 61 | 1012.2 |
| 20260831145224 | 7 | 141 | 3.2 | 9.7 | 0.00 | 0.00 | 0.00 | 62 | 1012.2 |
| 20260831144154 | 7 | 144 | 3.2 | 11.3 | 0.00 | 0.00 | 0.00 | 62 | 1012.1 |
| 20260831143417 | 6 | 140 | 4.8 | 8.0 | 0.00 | 0.00 | 0.00 | 63 | 1012.0 |
| 20260831142912 | 6 | 141 | 4.8 | 11.3 | 0.00 | 0.00 | 0.00 | 63 | 1012.0 |
| 20260831142404 | 6 | 142 | 4.8 | 11.3 | 0.00 | 0.00 | 0.00 | 63 | 1012.0 |
| 20260831141901 | 6 | 155 | 3.2 | 9.7 | 0.00 | 0.00 | 0.00 | 63 | 1012.0 |
| 20260831141400 | 6 | 159 | 1.6 | 8.0 | 0.00 | 0.00 | 0.00 | 65 | 1011.9 |
| 20260831140900 | 6 | 147 | 1.6 | 8.0 | 0.00 | 0.00 | 0.00 | 66 | 1012.0 |
| 20260831140400 | 5 | 148 | 3.2 | 8.0 | 0.00 | 0.00 | 0.00 | 66 | 1012.0 |
| 20260831135859 | 5 | 150 | 3.2 | 8.0 | 0.00 | 0.00 | 0.00 | 66 | 1012.0 |
| 20260831135359 | 5 | 151 | 4.8 | 11.3 | 0.00 | 0.00 | 0.00 | 65 | 1012.0 |
| 20260831135132 | 6 | 140 | 4.8 | 11.3 | 0.00 | 0.00 | 0.00 | 65 | 1012.0 |
| 20260831134400 | 6 | 138 | 3.2 | 8.0 | 0.00 | 0.00 | 0.00 | 64 | 1012.1 |
| 20260831133900 | 6 | 143 | 4.8 | 8.0 | 0.00 | 0.00 | 0.00 | 63 | 1012.1 |
| 20260831133357 | 6 | 151 | 3.2 | 8.0 | 0.00 | 0.00 | 0.00 | 63 | 1012.0 |
| 20260831133128 | 6 | 149 | 3.2 | 9.7 | 0.00 | 0.00 | 0.00 | 62 | 1011.9 |
| 20260831132400 | 6 | 150 | 3.2 | 9.7 | 0.00 | 0.00 | 0.00 | 61 | 1011.9 |
| 20260831131902 | 6 | 148 | 3.2 | 6.4 | 0.00 | 0.00 | 0.00 | 61 | 1011.9 |
| 20260831131358 | 6 | 144 | 3.2 | 6.4 | 0.00 | 0.00 | 0.00 | 62 | 1012.0 |
| 20260831130857 | 6 | 148 | 1.6 | 4.8 | 0.00 | 0.00 | 0.00 | 62 | 1012.0 |
| 20260831130358 | 6 | 144 | 0.0 | 4.8 | 0.00 | 0.00 | 0.00 | 63 | 1012.0 |
| 20260831125857 | 6 | 143 | 1.6 | 4.8 | 0.00 | 0.00 | 0.00 | 63 | 1012.0 |
| 20260831125354 | 6 | 143 | 3.2 | 4.8 | 0.00 | 0.00 | 0.00 | 63 | 1012.0 |
| 20260831125116 | 6 | 143 | 1.6 | 4.8 | 0.00 | 0.00 | 0.00 | 63 | 1012.1 |
| 20260831124848 | 6 | 143 | 1.6 | 4.8 | 0.00 | 0.00 | 0.00 | 63 | 1012.1 |
| 20260831124339 | 6 | 143 | 1.6 | 4.8 | 0.00 | 0.00 | 0.00 | 62 | 1012.1 |
| 20260831123833 | 6 | 143 | 3.2 | 8.0 | 0.00 | 0.00 | 0.00 | 62 | 1012.1 |
| 20260831123331 | 6 | 143 | 3.2 | 8.0 | 0.00 | 0.00 | 0.00 | 62 | 1012.2 |
| 20260831122831 | 6 | 141 | 3.2 | 6.4 | 0.00 | 0.00 | 0.00 | 62 | 1012.2 |
| 20260831122329 | 6 | 144 | 3.2 | 11.3 | 0.00 | 0.00 | 0.00 | 62 | 1012.2 |
| 20260831122110 | 7 | 144 | 4.8 | 11.3 | 0.00 | 0.00 | 0.00 | 61 | 1012.3 |
| 20260831121332 | 7 | 138 | 4.8 | 8.0 | 0.00 | 0.00 | 0.00 | 62 | 1012.4 |
| 20260831121110 | 7 | 142 | 4.8 | 8.0 | 0.00 | 0.00 | 0.00 | 63 | 1012.3 |
| 20260831120330 | 7 | 140 | 4.8 | 8.0 | 0.00 | 0.00 | 0.00 | 63 | 1012.3 |
| 20260831115829 | 7 | 136 | 3.2 | 8.0 | 0.00 | 0.00 | 0.00 | 62 | 1012.3 |
| 20260831115329 | 7 | 166 | 3.2 | 8.0 | 0.00 | 0.00 | 0.00 | 61 | 1012.4 |
| 20260831114829 | 7 | 208 | 1.6 | 4.8 | 0.00 | 0.00 | 0.00 | 60 | 1012.4 |
| 20260831114330 | 7 | 217 | 1.6 | 4.8 | 0.00 | 0.00 | 0.00 | 60 | 1012.4 |
| 20260831113829 | 7 | 225 | 0.0 | 4.8 | 0.00 | 0.00 | 0.00 | 59 | 1012.3 |
| 20260831113330 | 8 | 226 | 0.0 | 3.2 | 0.00 | 0.00 | 0.00 | 58 | 1012.4 |
| 20260831112823 | 8 | 226 | 0.0 | 3.2 | 0.00 | 0.00 | 0.00 | 57 | 1012.4 |
| 20260831112310 | 8 | 227 | 0.0 | 3.2 | 0.00 | 0.00 | 0.00 | 56 | 1012.4 |
| 20260831112140 | 8 | 227 | 0.0 | 3.2 | 0.00 | 0.00 | 0.00 | 54 | 1012.6 |
| 20260831111309 | 9 | 242 | 0.0 | 3.2 | 0.00 | 0.00 | 0.00 | 52 | 1012.7 |
| 20260831110551 | 9 | 248 | 0.0 | 0.0 | 0.00 | 0.00 | 0.00 | 53 | 1012.7 |
| 20260831105809 | 9 | 248 | 0.0 | 1.6 | 0.00 | 0.00 | 0.00 | 53 | 1012.7 |
| 20260831105544 | 9 | 248 | 0.0 | 1.6 | 0.00 | 0.00 | 0.00 | 53 | 1012.7 |
| 20260831104808 | 9 | 248 | 0.0 | 1.6 | 0.00 | 0.00 | 0.00 | 53 | 1012.6 |
| 20260831104309 | 9 | 265 | 0.0 | 1.6 | 0.00 | 0.00 | 0.00 | 54 | 1012.6 |
| 20260831103808 | 9 | 265 | 0.0 | 1.6 | 0.00 | 0.00 | 0.00 | 54 | 1012.6 |
| 20260831103310 | 9 | 272 | 0.0 | 1.6 | 0.00 | 0.00 | 0.00 | 55 | 1012.6 |
| 20260831102807 | 8 | 274 | 0.0 | 0.0 | 0.00 | 0.00 | 0.00 | 55 | 1012.6 |
| 20260831102306 | 8 | 274 | 0.0 | 0.0 | 0.00 | 0.00 | 0.00 | 55 | 1012.6 |
| 20260831101804 | 9 | 275 | 0.0 | 0.0 | 0.00 | 0.00 | 0.00 | 54 | 1012.6 |
| 20260831101538 | 9 | 275 | 0.0 | 3.2 | 0.00 | 0.00 | 0.00 | 53 | 1012.6 |
| 20260831101049 | 9 | 275 | 0.0 | 3.2 | 0.00 | 0.00 | 0.00 | 53 | 1012.6 |
| 20260831100303 | 9 | 294 | 0.0 | 1.6 | 0.00 | 0.00 | 0.00 | 53 | 1012.6 |
| 20260831095803 | 9 | 294 | 0.0 | 0.0 | 0.00 | 0.00 | 0.00 | 53 | 1012.7 |
| 20260831095311 | 9 | 294 | 0.0 | 0.0 | 0.00 | 0.00 | 0.00 | 53 | 1012.7 |
| 20260831094807 | 9 | 294 | 0.0 | 0.0 | 0.00 | 0.00 | 0.00 | 54 | 1012.7 |
| 20260831094301 | 10 | 294 | 0.0 | 0.0 | 0.00 | 0.00 | 0.00 | 54 | 1012.7 |
| 20260831093759 | 10 | 294 | 0.0 | 0.0 | 0.00 | 0.00 | 0.00 | 56 | 1012.7 |
| 20260831093256 | 10 | 294 | 0.0 | 0.0 | 0.00 | 0.00 | 0.00 | 55 | 1012.7 |
| 20260831092757 | 11 | 294 | 0.0 | 0.0 | 0.00 | 0.00 | 0.00 | 55 | 1012.8 |
| 20260831092255 | 11 | 294 | 0.0 | 0.0 | 0.00 | 0.00 | 0.00 | 54 | 1012.8 |
| 20260831091811 | 12 | 294 | 0.0 | 0.0 | 0.00 | 0.00 | 0.00 | 55 | 1012.9 |
| 20260831091804 | 11 | 294 | 0.0 | 0.0 | 0.00 | 0.00 | 0.00 | 54 | 1012.8 |
| 20260831090742 | 12 | 294 | 0.0 | 0.0 | 0.00 | 0.00 | 0.00 | 54 | 1013.0 |
| 20260831090236 | 12 | 294 | 0.0 | 0.0 | 0.00 | 0.00 | 0.00 | 54 | 1012.9 |
| 20260831085732 | 12 | 294 | 0.0 | 0.0 | 0.00 | 0.00 | 0.00 | 53 | 1013.0 |
| 20260831085240 | 12 | 294 | 0.0 | 0.0 | 0.00 | 0.00 | 0.00 | 52 | 1013.0 |
| 20260831085235 | 12 | 294 | 0.0 | 0.0 | 0.00 | 0.00 | 0.00 | 52 | 1012.9 |
| 20260831084212 | 12 | 294 | 0.0 | 0.0 | 0.00 | 0.00 | 0.00 | 52 | 1013.1 |
| 20260831083705 | 12 | 294 | 0.0 | 0.0 | 0.00 | 0.00 | 0.00 | 51 | 1013.1 |
| 20260831083159 | 12 | 294 | 0.0 | 0.0 | 0.00 | 0.00 | 0.00 | 51 | 1013.1 |
| 20260831082656 | 12 | 294 | 0.0 | 0.0 | 0.00 | 0.00 | 0.00 | 50 | 1013.1 |
| 20260831082150 | 12 | 294 | 0.0 | 0.0 | 0.00 | 0.00 | 0.00 | 50 | 1013.0 |
| 20260831081642 | 12 | 294 | 0.0 | 0.0 | 0.00 | 0.00 | 0.00 | 50 | 1013.1 |
| 20260831081136 | 12 | 294 | 0.0 | 0.0 | 0.00 | 0.00 | 0.00 | 49 | 1013.1 |
| 20260831080630 | 13 | 294 | 0.0 | 0.0 | 0.00 | 0.00 | 0.00 | 49 | 1013.2 |
| 20260831080124 | 13 | 294 | 0.0 | 0.0 | 0.00 | 0.00 | 0.00 | 48 | 1013.2 |
| 20260831075618 | 13 | 294 | 0.0 | 0.0 | 0.00 | 0.00 | 0.00 | 47 | 1013.2 |
| 20260831075112 | 13 | 294 | 0.0 | 0.0 | 0.00 | 0.00 | 0.00 | 47 | 1013.3 |
| 20260831074606 | 13 | 294 | 0.0 | 1.6 | 0.00 | 0.00 | 0.00 | 47 | 1013.2 |
| 20260831074334 | 13 | 294 | 0.0 | 1.6 | 0.00 | 0.00 | 0.00 | 47 | 1013.3 |
| 20260831073554 | 13 | 294 | 0.0 | 3.2 | 0.00 | 0.00 | 0.00 | 47 | 1013.2 |
| 20260831073319 | 13 | 294 | 0.0 | 3.2 | 0.00 | 0.00 | 0.00 | 47 | 1013.2 |
| 20260831073053 | 13 | 294 | 0.0 | 3.2 | 0.00 | 0.00 | 0.00 | 47 | 1013.2 |
| 20260831072547 | 13 | 294 | 0.0 | 3.2 | 0.00 | 0.00 | 0.00 | 47 | 1013.3 |
| 20260831072036 | 14 | 294 | 0.0 | 3.2 | 0.00 | 0.00 | 0.00 | 47 | 1013.2 |
| 20260831071530 | 14 | 294 | 0.0 | 1.6 | 0.00 | 0.00 | 0.00 | 46 | 1013.3 |
| 20260831071024 | 14 | 294 | 0.0 | 3.2 | 0.00 | 0.00 | 0.00 | 46 | 1013.4 |
| 20260831070521 | 14 | 294 | 0.0 | 3.2 | 0.00 | 0.00 | 0.00 | 45 | 1013.4 |
| 20260831070015 | 15 | 294 | 0.0 | 3.2 | 0.00 | 0.00 | 0.00 | 45 | 1013.4 |
| 20260831065510 | 15 | 294 | 0.0 | 3.2 | 0.00 | 0.00 | 0.00 | 45 | 1013.4 |
| 20260831065505 | 15 | 294 | 1.6 | 6.4 | 0.00 | 0.00 | 0.00 | 45 | 1013.3 |
| 20260831064456 | 15 | 297 | 1.6 | 6.4 | 0.00 | 0.00 | 0.00 | 46 | 1013.4 |
| 20260831063953 | 15 | 301 | 1.6 | 6.4 | 0.00 | 0.00 | 0.00 | 46 | 1013.4 |
| 20260831063444 | 15 | 292 | 1.6 | 6.4 | 0.00 | 0.00 | 0.00 | 46 | 1013.4 |
| 20260831062939 | 15 | 284 | 1.6 | 9.7 | 0.00 | 0.00 | 0.00 | 46 | 1013.4 |
| 20260831062432 | 16 | 279 | 3.2 | 9.7 | 0.00 | 0.00 | 0.00 | 46 | 1013.4 |
| 20260831061926 | 16 | 291 | 3.2 | 6.4 | 0.00 | 0.00 | 0.00 | 46 | 1013.4 |
| 20260831061420 | 16 | 294 | 3.2 | 6.4 | 0.00 | 0.00 | 0.00 | 46 | 1013.4 |
| 20260831060914 | 15 | 282 | 3.2 | 6.4 | 0.00 | 0.00 | 0.00 | 45 | 1013.4 |
| 20260831060408 | 15 | 280 | 3.2 | 8.0 | 0.00 | 0.00 | 0.00 | 46 | 1013.4 |
| 20260831055908 | 15 | 293 | 3.2 | 8.0 | 0.00 | 0.00 | 0.00 | 46 | 1013.3 |
| 20260831055408 | 15 | 299 | 3.2 | 4.8 | 0.00 | 0.00 | 0.00 | 45 | 1013.4 |
| 20260831054911 | 15 | 294 | 1.6 | 6.4 | 0.00 | 0.00 | 0.00 | 44 | 1013.4 |
| 20260831054652 | 15 | 298 | 1.6 | 6.4 | 0.00 | 0.00 | 0.00 | 44 | 1013.4 |
| 20260831053908 | 15 | 310 | 1.6 | 4.8 | 0.00 | 0.00 | 0.00 | 43 | 1013.5 |
| 20260831053644 | 15 | 315 | 1.6 | 4.8 | 0.00 | 0.00 | 0.00 | 43 | 1013.5 |
| 20260831052907 | 15 | 315 | 1.6 | 4.8 | 0.00 | 0.00 | 0.00 | 42 | 1013.5 |
| 20260831052408 | 15 | 318 | 1.6 | 4.8 | 0.00 | 0.00 | 0.00 | 41 | 1013.5 |